Voltar ao catálogo

ORBCOMM-X

AtivoComunicaçõesSSO
NORAD 21576·PAYLOAD·🇺🇸 United States

Lançado Jul 17, 1991 de Guiana Space Centre

Loading…

Próximas Passagens (próximas 24 horas)

TLE

AtualizadoSource: Space-Track

Época: Sep 14, 2026, 09:52 UTC

1 21576U 91050C   26257.41166591  .00000172  00000-0  63135-4 0  9993
2 21576  98.2869 318.3626 0002468 241.0843 119.0100 14.43623171847649

Acompanhe ORBCOMM-X em tempo real com AllMySat

Download on the App Store